Powrót do katalogu

SCOUT X-4 DEB

AktywnyPO
NORAD 977·DEBRIS·🇺🇸 United States

Wystrzelony Oct 10, 1964 z Vandenberg Space Force Base

Loading…

Następne Przeloty (najbliższe 24 godziny)

TLE

ŚwieżeSource: Space-Track

Epoka: Sep 14, 2026, 09:50 UTC

1 00977U 64064D   26257.40994086  .00000223  00000-0  19942-3 0  9990
2 00977  80.0428  57.6011 0126436 287.2558  71.4788 13.79167755101734

Śledź SCOUT X-4 DEB w czasie rzeczywistym z AllMySat

Download on the App Store